Location: Piotrkow Trybunalski
(51.4000°N, 19.6830°E)
Time: 00:47:14
(UTC+01:00)

A-11 Canister half - Pass Details

Date: 20 December 2023
Orbit: 1512 x 1687 km, 47.2° (Epoch: 23 February)

Event Time Altitude Azimuth Distance (km) Brightness Sun altitude
Rises 18:48:04 0° 206° (SSW) 4,644 11.9 -28.8°
Reaches altitude 10° 18:51:30 10° 196° (SSW) 3,673 11.2 -29.3°
Enters shadow 18:57:56 30° 153° (SSE) 2,485 9.8 -30.3°
